When you browse on this site, cookies collect data to enhance your experience and personalize the content and advertising you see.
Visit our Privacy Policy to learn more. By continuing to use the site, you agree to this use of cookies and data.
  • In Schweiz
  • Länderverzeichnis
  • Für 7 Tage
  • Wassertemperatur
  • Wetterkarte
  • Widgets
  • user-avatar
    Anmelden

    Stündliche Wetter Cumaná

    Heute, 20 Oktober, Sonntag

    Zeit Temperatur Niederschläge Wind Luftdruck Luftfeuchtigkeit
    00:00 +25°C° 0 mm 3 m/S 751 mmHg 89%
    01:00 +25°C° 0 mm 3 m/S 751 mmHg 88%
    02:00 +25°C° 0 mm 2 m/S 750 mmHg 87%
    03:00 +25°C° 0 mm 2 m/S 750 mmHg 86%
    04:00 +25°C° 0 mm 2 m/S 750 mmHg 85%
    05:00 +25°C° 0 mm 2 m/S 750 mmHg 85%
    06:00 +26°C° 0 mm 2 m/S 751 mmHg 81%
    07:00 +28°C° 0 mm 2 m/S 751 mmHg 78%
    08:00 +29°C° 0 mm 2 m/S 752 mmHg 75%
    09:00 +30°C° 0 mm 2 m/S 752 mmHg 69%
    10:00 +32°C° 0 mm 2 m/S 752 mmHg 63%
    11:00 +35°C° 0 mm 2 m/S 752 mmHg 58%
    12:00 +34°C° 0.3 mm 2 m/S 751 mmHg 67%
    13:00 +32°C° 0.3 mm 2 m/S 750 mmHg 76%
    14:00 +31°C° 0.3 mm 2 m/S 750 mmHg 86%
    15:00 +30°C° 1 mm 3 m/S 750 mmHg 89%
    16:00 +29°C° 1 mm 3 m/S 749 mmHg 92%
    17:00 +28°C° 1 mm 4 m/S 749 mmHg 96%
    18:00 +28°C° 0.2 mm 4 m/S 750 mmHg 96%
    19:00 +27°C° 0.2 mm 4 m/S 750 mmHg 97%
    20:00 +27°C° 0.2 mm 4 m/S 751 mmHg 98%
    21:00 +26°C° 0 mm 4 m/S 751 mmHg 97%
    22:00 +26°C° 0 mm 4 m/S 751 mmHg 96%
    23:00 +26°C° 0 mm 4 m/S 751 mmHg 95%

    Morgen, 21 Oktober, Montag

    Zeit Temperatur Niederschläge Wind Luftdruck Luftfeuchtigkeit
    00:00 +25°C° 0 mm 4 m/S 750 mmHg 93%
    01:00 +25°C° 0 mm 4 m/S 750 mmHg 91%
    02:00 +25°C° 0 mm 4 m/S 750 mmHg 89%
    03:00 +25°C° 0 mm 4 m/S 750 mmHg 89%
    04:00 +23°C° 0 mm 4 m/S 750 mmHg 88%
    05:00 +23°C° 0 mm 4 m/S 749 mmHg 88%
    06:00 +26°C° 0 mm 3 m/S 750 mmHg 85%
    07:00 +28°C° 0 mm 3 m/S 751 mmHg 81%
    08:00 +29°C° 0 mm 3 m/S 751 mmHg 78%
    09:00 +30°C° 0 mm 3 m/S 751 mmHg 73%
    10:00 +33°C° 0 mm 3 m/S 751 mmHg 67%
    11:00 +34°C° 0 mm 3 m/S 751 mmHg 62%
    12:00 +34°C° 0.1 mm 3 m/S 751 mmHg 66%
    13:00 +33°C° 0.1 mm 3 m/S 750 mmHg 70%
    14:00 +33°C° 0.1 mm 3 m/S 749 mmHg 75%
    15:00 +31°C° 0.1 mm 3 m/S 749 mmHg 80%
    16:00 +30°C° 0.1 mm 3 m/S 749 mmHg 86%
    17:00 +29°C° 0.1 mm 4 m/S 749 mmHg 91%
    18:00 +28°C° 0 mm 3 m/S 749 mmHg 93%
    19:00 +27°C° 0 mm 3 m/S 750 mmHg 95%
    20:00 +26°C° 0 mm 3 m/S 750 mmHg 97%
    21:00 +26°C° 0 mm 3 m/S 750 mmHg 97%
    22:00 +26°C° 0 mm 3 m/S 750 mmHg 96%
    23:00 +25°C° 0 mm 3 m/S 751 mmHg 96%

    übermorgen, 22 Oktober, Dienstag

    Zeit Temperatur Niederschläge Wind Luftdruck Luftfeuchtigkeit
    00:00 +25°C° 0 mm 3 m/S 750 mmHg 93%
    01:00 +24°C° 0 mm 3 m/S 750 mmHg 91%
    02:00 +24°C° 0 mm 3 m/S 750 mmHg 88%
    03:00 +22°C° 0 mm 3 m/S 750 mmHg 85%
    04:00 +22°C° 0 mm 3 m/S 750 mmHg 81%
    05:00 +22°C° 0 mm 3 m/S 750 mmHg 78%
    06:00 +25°C° 0 mm 2 m/S 750 mmHg 74%
    07:00 +27°C° 0 mm 2 m/S 750 mmHg 71%
    08:00 +29°C° 0 mm 1 m/S 751 mmHg 67%
    09:00 +30°C° 0 mm 1 m/S 751 mmHg 64%
    10:00 +31°C° 0 mm 2 m/S 751 mmHg 61%
    11:00 +34°C° 0 mm 2 m/S 751 mmHg 58%
    12:00 +32°C° 0.2 mm 2 m/S 750 mmHg 63%
    13:00 +32°C° 0.2 mm 2 m/S 749 mmHg 69%
    14:00 +31°C° 0.2 mm 2 m/S 749 mmHg 75%
    15:00 +30°C° 1.1 mm 2 m/S 749 mmHg 80%
    16:00 +29°C° 1.1 mm 2 m/S 749 mmHg 85%
    17:00 +28°C° 1.1 mm 2 m/S 749 mmHg 91%
    18:00 +28°C° 0.5 mm 3 m/S 749 mmHg 92%
    19:00 +27°C° 0.5 mm 3 m/S 749 mmHg 94%
    20:00 +26°C° 0.5 mm 3 m/S 750 mmHg 96%
    21:00 +26°C° 0.1 mm 3 m/S 750 mmHg 95%
    22:00 +25°C° 0.1 mm 3 m/S 750 mmHg 93%
    23:00 +25°C° 0.1 mm 3 m/S 750 mmHg 92%

    23 Oktober, Mittwoch

    Zeit Temperatur Niederschläge Wind Luftdruck Luftfeuchtigkeit
    00:00 +25°C° 0.1 mm 3 m/S 750 mmHg 91%
    01:00 +25°C° 0.1 mm 3 m/S 749 mmHg 91%
    02:00 +25°C° 0.1 mm 3 m/S 749 mmHg 90%
    03:00 +25°C° 0 mm 3 m/S 749 mmHg 89%
    04:00 +25°C° 0 mm 3 m/S 749 mmHg 88%
    05:00 +24°C° 0 mm 3 m/S 749 mmHg 87%
    06:00 +26°C° 0 mm 2 m/S 750 mmHg 84%
    07:00 +27°C° 0 mm 2 m/S 750 mmHg 80%
    08:00 +28°C° 0 mm 2 m/S 750 mmHg 76%
    09:00 +30°C° 0 mm 2 m/S 751 mmHg 70%
    10:00 +32°C° 0 mm 2 m/S 751 mmHg 64%
    11:00 +34°C° 0 mm 2 m/S 751 mmHg 57%
    12:00 +34°C° 0.1 mm 2 m/S 750 mmHg 65%
    13:00 +32°C° 0.1 mm 2 m/S 749 mmHg 73%
    14:00 +31°C° 0.1 mm 2 m/S 748 mmHg 80%
    15:00 +30°C° 0.4 mm 2 m/S 748 mmHg 83%
    16:00 +30°C° 0.4 mm 3 m/S 748 mmHg 86%
    17:00 +29°C° 0.4 mm 3 m/S 748 mmHg 89%
    18:00 +28°C° 0.2 mm 4 m/S 748 mmHg 92%
    19:00 +27°C° 0.2 mm 4 m/S 749 mmHg 95%
    20:00 +26°C° 0.2 mm 5 m/S 750 mmHg 97%
    21:00 +26°C° 0 mm 5 m/S 750 mmHg 96%
    22:00 +26°C° 0 mm 5 m/S 750 mmHg 95%
    23:00 +25°C° 0 mm 5 m/S 750 mmHg 94%

    24 Oktober, Donnerstag

    Zeit Temperatur Niederschläge Wind Luftdruck Luftfeuchtigkeit
    00:00 +25°C° 0 mm 4 m/S 750 mmHg 92%
    01:00 +25°C° 0 mm 4 m/S 749 mmHg 90%
    02:00 +25°C° 0 mm 4 m/S 749 mmHg 87%
    03:00 +25°C° 0 mm 4 m/S 749 mmHg 86%
    04:00 +25°C° 0 mm 3 m/S 749 mmHg 85%
    05:00 +25°C° 0 mm 3 m/S 749 mmHg 84%
    06:00 +26°C° 0 mm 3 m/S 749 mmHg 81%
    07:00 +28°C° 0 mm 3 m/S 750 mmHg 79%
    08:00 +29°C° 0 mm 2 m/S 750 mmHg 76%
    09:00 +30°C° 0 mm 2 m/S 751 mmHg 73%
    10:00 +32°C° 0 mm 2 m/S 751 mmHg 70%
    11:00 +34°C° 0 mm 2 m/S 751 mmHg 67%
    12:00 +32°C° 0.8 mm 2 m/S 750 mmHg 74%
    13:00 +31°C° 0.8 mm 2 m/S 749 mmHg 80%
    14:00 +31°C° 0.8 mm 2 m/S 749 mmHg 86%
    15:00 +30°C° 1 mm 3 m/S 748 mmHg 88%
    16:00 +30°C° 1 mm 3 m/S 748 mmHg 91%
    17:00 +29°C° 1 mm 3 m/S 748 mmHg 93%
    18:00 +28°C° 0.2 mm 4 m/S 749 mmHg 94%
    19:00 +27°C° 0.2 mm 4 m/S 749 mmHg 96%
    20:00 +27°C° 0.2 mm 4 m/S 750 mmHg 97%
    21:00 +26°C° 0 mm 4 m/S 750 mmHg 96%
    22:00 +26°C° 0 mm 4 m/S 750 mmHg 94%
    23:00 +25°C° 0 mm 4 m/S 750 mmHg 92%

    25 Oktober, Freitag

    Zeit Temperatur Niederschläge Wind Luftdruck Luftfeuchtigkeit
    00:00 +25°C° 0 mm 4 m/S 750 mmHg 91%
    01:00 +25°C° 0 mm 4 m/S 749 mmHg 89%
    02:00 +25°C° 0 mm 3 m/S 749 mmHg 88%
    03:00 +25°C° 0 mm 3 m/S 749 mmHg 85%
    04:00 +25°C° 0 mm 3 m/S 749 mmHg 83%
    05:00 +24°C° 0 mm 3 m/S 749 mmHg 80%
    06:00 +26°C° 0 mm 3 m/S 750 mmHg 76%
    07:00 +28°C° 0 mm 3 m/S 750 mmHg 73%
    08:00 +29°C° 0 mm 3 m/S 751 mmHg 69%
    09:00 +31°C° 0 mm 3 m/S 751 mmHg 65%
    10:00 +33°C° 0 mm 3 m/S 751 mmHg 61%
    11:00 +34°C° 0 mm 3 m/S 751 mmHg 57%
    12:00 +34°C° 0.6 mm 3 m/S 750 mmHg 65%
    13:00 +33°C° 0.6 mm 4 m/S 749 mmHg 74%
    14:00 +32°C° 0.6 mm 4 m/S 749 mmHg 82%
    15:00 +30°C° 2.2 mm 4 m/S 748 mmHg 87%
    16:00 +30°C° 2.2 mm 4 m/S 748 mmHg 91%
    17:00 +29°C° 2.2 mm 5 m/S 748 mmHg 95%
    18:00 +28°C° 0.8 mm 5 m/S 749 mmHg 95%
    19:00 +27°C° 0.8 mm 5 m/S 749 mmHg 95%
    20:00 +26°C° 0.8 mm 5 m/S 750 mmHg 95%
    21:00 +26°C° 0.2 mm 5 m/S 750 mmHg 94%
    22:00 +26°C° 0.2 mm 5 m/S 750 mmHg 94%
    23:00 +25°C° 0.2 mm 4 m/S 750 mmHg 93%
    Mehr zeigen